Theta_e
305 308 312 314 312 311 314 315 309 316 315 310 310 311 311 309 314 312 302 303 307 304 305 306 314 315 316 316 317 320 330 335 338 340 340 339 336 334 334 338 341 340 339 341 338 343 341 338 339
306 309 313 305 313 310 307 308 312 311 311 305 305 307 309 308 303 301 302 302 303 303 304 306 310 313 314 314 315 316 318 323 332 336 339 339 339 337 335 336 337 340 339 341 343 343 342 338 337
305 307 308 308 306 311 310 308 308 306 304 306 304 301 304 302 300 300 300 302 302 302 302 304 304 308 309 309 313 314 315 316 320 328 332 338 339 338 337 336 337 336 339 342 343 342 342 338 339
305 301 297 305 308 306 305 307 305 305 304 302 302 303 299 299 300 300 301 302 302 301 301 301 302 303 304 304 305 309 312 314 314 318 325 329 337 339 337 337 336 339 336 340 342 343 341 338 340
302 296 299 301 303 305 304 304 303 303 302 302 301 303 301 299 299 300 301 301 301 300 300 299 299 300 300 301 302 303 304 307 311 312 315 321 331 337 338 337 338 335 341 339 339 341 340 338 340
297 295 299 301 302 303 302 301 302 301 301 301 300 300 299 299 299 299 299 299 299 298 298 298 298 298 298 298 299 300 301 302 303 305 304 309 321 332 337 337 337 338 336 339 339 340 339 338 338
298 298 300 301 302 302 302 301 301 300 301 301 298 300 299 298 299 299 298 298 298 297 297 297 296 296 296 296 297 298 299 300 301 301 302 303 308 321 331 336 337 338 337 336 338 339 338 338 336
295 297 302 301 302 303 301 301 300 300 301 300 299 300 300 297 298 298 297 297 297 296 296 295 296 296 296 296 295 296 296 297 299 300 301 302 303 309 321 329 334 337 337 337 334 337 338 337 335
296 298 299 302 301 302 300 301 300 300 301 300 297 298 298 298 298 297 296 296 295 296 295 294 294 294 294 295 295 295 295 296 297 299 300 301 302 303 310 318 327 332 336 337 336 334 335 335 336
298 298 300 301 300 300 300 300 300 300 300 300 298 296 297 297 296 295 295 294 294 294 293 293 293 292 293 293 294 295 294 295 295 297 298 300 301 301 303 308 314 322 332 335 336 336 335 335 336
300 300 302 301 300 300 300 299 299 299 298 297 297 296 295 295 295 294 294 294 293 293 292 292 292 291 291 292 293 293 294 294 294 295 296 298 300 301 301 304 308 313 326 332 335 336 336 336 336
302 300 301 301 302 299 300 299 299 296 297 298 295 295 294 294 293 293 293 293 292 292 292 292 291 290 290 290 291 292 292 293 293 294 295 296 299 301 301 301 304 308 313 326 332 334 336 336 336
301 301 301 300 299 298 298 298 298 297 295 296 295 295 294 293 293 293 293 292 292 291 290 290 290 290 289 289 289 290 291 292 293 294 294 295 296 299 301 301 302 306 308 314 328 332 335 335 335
301 301 300 300 300 299 299 299 298 298 295 294 295 294 293 293 292 292 291 291 291 290 290 289 289 289 289 289 289 289 290 290 292 293 294 295 295 296 299 301 302 304 306 310 321 332 333 335 335
301 300 300 300 299 300 299 300 298 297 295 296 293 293 293 293 292 291 291 290 289 289 289 289 289 288 288 289 289 289 289 290 291 292 293 294 294 296 298 300 302 303 305 306 316 328 332 335 335
302 301 302 302 300 299 300 301 300 296 294 295 293 292 292 292 292 290 289 289 288 288 288 288 288 288 288 288 288 288 288 288 290 292 293 294 294 296 298 301 302 303 305 306 310 326 331 333 334
302 300 302 304 300 299 299 300 300 296 294 295 293 292 291 291 289 288 288 288 288 288 288 288 287 286 286 287 287 287 288 289 290 292 293 293 294 295 297 300 302 304 305 307 308 323 328 329 331
300 303 303 304 300 300 299 298 299 298 295 295 293 292 291 290 288 288 288 287 287 287 286 286 286 286 286 285 286 287 288 288 288 290 292 292 293 295 296 299 302 304 306 307 309 320 325 323 324
302 302 302 300 299 299 299 298 299 298 295 295 293 291 290 289 286 287 287 287 286 286 286 285 284 284 285 285 285 286 287 287 288 289 291 291 293 299 301 302 303 305 306 306 308 318 323 319 318
301 302 302 300 299 298 298 297 298 295 295 295 293 292 291 287 285 286 286 286 285 285 284 284 284 284 284 284 284 285 285 287 287 288 289 293 295 298 300 303 305 305 306 306 307 314 323 320 321
301 301 300 300 298 296 296 296 295 296 295 294 292 290 288 286 285 284 284 285 284 284 283 283 283 283 282 283 284 283 285 286 287 288 290 291 295 298 300 301 306 307 307 305 307 312 320 319 318
301 300 299 299 297 298 297 298 298 297 296 295 293 288 286 285 285 284 283 283 283 283 282 282 282 281 281 283 283 283 283 284 285 287 288 289 294 296 298 300 302 308 308 309 310 312 314 319 318
299 298 298 298 295 293 297 292 297 295 298 297 293 289 285 284 283 283 281 283 282 282 281 281 280 281 281 282 282 282 282 283 285 286 287 289 293 295 296 297 298 301 308 309 310 312 313 316 314
297 300 298 297 295 295 294 295 300 295 293 295 291 289 286 286 285 283 282 282 282 281 280 280 280 280 280 281 281 281 281 283 284 285 286 288 292 293 294 295 296 296 303 305 305 308 312 315 314
300 300 300 297 294 300 295 296 300 292 290 288 287 287 283 284 283 281 281 280 280 280 279 279 280 279 280 280 280 280 281 282 282 283 285 287 289 291 293 294 294 293 298 301 302 303 308 310 312
300 298 301 295 296 296 296 296 298 289 282 277 279 277 283 284 282 281 280 279 279 279 278 279 279 279 279 279 280 280 280 281 281 282 283 286 287 289 292 294 292 292 296 298 299 300 303 305 307
300 303 294 289 285 293 291 293 294 293 287 282 283 286 285 283 281 279 279 278 278 278 278 278 278 278 279 279 279 279 280 280 280 281 282 284 285 287 288 288 292 292 295 296 298 299 301 302 304
298 296 296 293 295 293 295 291 294 290 289 286 284 286 283 282 280 279 278 277 277 277 278 278 278 278 278 278 279 279 279 279 280 280 282 283 284 285 286 288 290 288 291 293 295 298 297 299 301
297 296 296 294 290 291 292 296 287 288 284 286 286 285 280 279 277 276 276 277 277 277 278 278 278 278 278 278 278 278 278 279 279 280 281 282 283 284 284 285 285 288 290 294 293 297 295 295 299
294 290 291 293 291 283 288 297 281 281 276 276 284 285 279 278 275 275 275 275 276 277 278 278 278 278 278 278 278 278 278 279 279 279 280 281 282 282 283 284 284 285 288 288 293 293 290 290 292
Wind_Speed
5 3 2 4 3 4 4 5 1 1 2 1 2 2 6 4 3 3 8 10 6 10 12 15 18 20 21 23 24 24 19 13 11 8 7 7 6 6 9 13 16 18 19 18 19 20 21 23 20
5 2 3 2 4 2 5 4 4 2 2 4 5 2 5 3 3 6 7 9 8 8 10 13 16 19 20 22 22 23 23 21 13 8 9 7 9 7 9 12 15 19 20 20 20 21 22 23 24
2 3 3 4 3 5 5 4 4 2 3 2 4 6 2 4 2 3 5 10 8 9 10 12 14 17 18 19 21 21 22 23 21 17 11 11 8 10 11 13 15 18 21 21 21 22 22 22 23
2 5 4 4 5 6 4 2 3 3 1 5 3 6 2 2 1 5 10 8 6 10 10 11 14 15 17 17 19 19 21 22 22 21 17 14 9 7 12 15 17 18 21 22 22 24 24 23 24
5 3 3 1 5 3 1 2 2 2 1 3 2 4 5 1 8 10 8 5 6 8 10 13 13 15 16 16 17 18 19 21 21 20 20 18 11 11 12 15 18 21 21 24 27 27 27 26 26
4 3 3 3 4 1 2 1 3 3 1 2 4 5 4 5 7 7 6 5 5 7 10 12 14 15 16 16 16 17 18 18 19 19 17 17 14 10 12 16 19 22 24 24 25 28 27 26 26
6 4 4 3 3 2 4 3 2 5 3 3 7 5 1 3 7 7 6 4 4 7 9 12 16 18 18 18 16 16 17 18 17 18 18 18 15 14 12 14 19 22 24 26 26 25 25 26 24
5 4 3 4 4 4 3 2 1 3 5 2 4 5 5 6 10 9 6 2 4 7 11 13 15 16 18 19 20 18 16 18 18 18 18 19 18 15 14 16 17 20 24 27 29 28 26 26 25
3 3 3 4 6 3 2 4 2 1 2 2 2 1 4 15 11 9 5 1 4 7 11 15 16 17 17 18 19 22 19 17 18 18 18 19 20 19 17 17 17 19 24 27 29 31 30 29 29
4 3 8 3 3 3 4 2 3 1 4 4 1 1 7 10 9 7 4 1 3 7 9 13 16 18 19 19 19 20 22 22 20 20 20 20 20 20 20 19 18 18 21 27 31 32 32 31 32
3 5 3 3 3 4 2 2 2 3 6 9 9 8 7 7 6 5 3 3 3 6 9 13 17 19 20 18 19 21 22 24 25 22 21 22 22 21 20 21 20 18 16 22 28 32 33 35 35
2 5 3 2 3 3 3 2 4 8 7 1 8 9 8 7 8 9 8 6 3 5 9 13 17 20 18 17 19 20 22 23 24 26 24 24 24 23 23 22 21 20 18 18 23 25 35 39 39
3 2 2 2 3 5 2 7 7 9 9 3 5 8 10 8 10 11 9 7 3 5 8 13 18 19 19 20 21 20 20 21 23 24 25 24 25 26 25 24 23 22 20 19 21 26 28 33 38
2 3 6 6 5 4 5 3 3 4 2 7 7 9 8 9 13 11 9 6 4 6 10 15 18 19 22 23 22 20 22 23 22 25 26 27 26 26 27 27 26 23 21 21 22 25 28 31 35
1 6 6 6 4 5 3 7 10 4 3 6 9 8 8 8 13 14 12 8 4 5 10 15 18 20 23 23 24 23 24 22 24 23 25 27 28 26 26 27 28 26 22 22 24 22 30 30 32
1 1 4 1 5 1 2 8 4 4 7 10 9 8 8 6 8 9 9 6 3 6 11 15 18 22 23 24 24 24 24 24 22 22 22 27 29 26 25 25 28 27 24 22 23 22 25 29 33
2 4 4 6 4 3 4 7 7 5 6 10 9 9 8 5 6 9 8 4 4 7 11 16 19 21 22 22 23 23 23 21 20 18 21 26 28 27 25 26 28 28 24 23 22 22 15 13 28
5 4 4 5 1 1 6 16 20 9 8 13 10 9 8 7 8 9 5 3 6 9 11 14 19 21 22 22 23 24 20 21 20 20 20 26 28 27 27 28 27 27 24 23 20 20 20 3 10
1 3 5 2 2 2 9 12 21 12 8 10 9 8 9 8 8 8 4 4 8 12 14 15 16 17 18 22 23 17 18 26 18 17 18 23 24 22 25 27 28 26 24 23 19 18 18 12 12
3 3 5 4 3 2 6 15 22 9 5 4 6 8 8 5 5 5 4 6 9 11 13 15 17 17 17 18 20 20 24 21 26 24 21 17 19 19 20 23 27 26 24 25 21 16 17 13 25
4 4 2 4 5 1 7 8 5 3 2 2 2 1 4 8 7 4 6 8 9 10 12 14 18 20 20 19 17 23 22 24 21 17 17 18 18 19 20 18 20 23 20 24 21 16 14 17 23
2 2 3 0 4 3 4 6 7 3 6 4 5 4 5 6 3 4 6 8 7 10 12 15 18 22 20 16 20 20 19 19 21 20 20 22 17 14 15 14 11 14 18 18 17 15 13 13 17
5 1 3 3 3 4 1 2 8 5 6 4 6 7 7 5 4 6 7 5 8 12 15 17 20 20 18 17 18 19 18 19 20 20 20 20 17 16 13 12 12 10 12 14 11 13 12 7 9
5 3 4 4 2 2 2 3 6 3 5 3 1 4 6 5 5 5 5 7 11 14 17 19 20 18 19 17 20 19 18 19 18 17 17 18 15 16 13 13 10 12 11 12 11 11 8 7 13
4 3 3 4 2 5 2 1 10 6 5 5 5 6 4 5 5 4 5 8 12 15 16 18 17 21 20 20 19 18 18 18 17 17 16 16 14 14 12 13 13 13 10 11 13 10 8 8 9
4 4 4 6 2 4 1 6 6 6 4 5 4 4 6 6 5 4 4 7 11 12 17 18 19 20 21 20 19 18 17 16 16 16 16 16 15 14 11 13 15 12 8 8 8 10 11 12 12
1 3 2 6 1 3 2 7 9 3 4 4 7 5 8 6 5 4 6 9 12 14 16 17 18 19 19 18 17 17 14 15 15 14 15 16 13 11 11 11 10 10 7 6 5 7 15 17 14
2 2 2 2 0 4 4 5 5 5 4 4 6 7 7 4 4 3 5 10 12 14 15 15 15 16 16 15 14 13 14 12 11 10 10 10 9 8 6 6 10 10 4 5 6 6 8 12 13
2 2 2 3 3 4 2 7 7 7 6 6 8 6 6 5 3 3 6 10 12 12 13 14 14 14 14 13 13 12 11 9 7 5 6 6 6 6 3 4 4 1 1 2 5 5 6 10 7
2 4 3 4 4 1 3 7 3 5 4 3 10 8 4 3 3 4 6 10 11 11 11 12 12 12 11 11 10 9 9 7 6 5 5 5 4 3 3 1 0 4 6 4 5 6 9 12 13
Wind_Direction
349 10 80 51 67 63 266 260 257 123 94 49 54 118 127 52 66 165 107 79 92 50 33 26 23 23 22 21 19 17 15 6 17 11 300 278 259 230 203 196 192 191 198 195 198 196 194 193 193
0 92 64 77 99 112 258 249 209 184 136 106 84 80 34 80 56 120 132 83 87 63 41 30 22 21 19 19 18 15 14 11 356 357 353 303 266 247 224 208 205 202 205 199 201 196 199 199 196
85 67 91 107 126 194 218 211 167 103 38 120 97 53 69 116 69 95 63 120 100 63 41 26 13 13 13 13 14 12 8 8 3 354 356 347 301 259 238 227 215 212 209 206 201 200 203 198 192
138 23 34 103 219 250 219 189 169 137 52 54 123 79 64 22 94 100 112 114 67 45 31 20 11 10 5 0 1 1 2 1 359 358 350 346 330 285 258 242 230 219 213 212 208 203 207 199 198
54 55 72 143 248 264 263 180 126 127 293 57 14 172 137 111 114 108 105 86 35 17 6 2 358 348 347 347 346 342 344 350 353 351 350 346 318 278 263 249 245 232 221 218 216 210 210 206 201
48 96 76 221 244 247 252 284 156 154 340 354 74 124 214 142 154 118 111 88 44 14 3 354 352 349 345 344 336 327 327 328 333 338 338 338 328 290 278 263 247 244 234 225 223 219 213 210 208
117 97 211 216 236 228 217 146 180 171 161 248 139 146 226 183 155 136 123 97 27 4 348 349 348 347 344 344 337 326 321 316 315 321 326 328 323 318 288 271 256 248 244 238 228 225 218 213 213
105 94 176 243 202 237 177 150 108 153 235 102 154 209 232 197 169 162 142 98 349 352 351 350 342 337 334 334 336 335 324 315 311 311 312 315 320 313 306 283 272 262 249 242 238 231 223 220 221
134 72 222 246 169 193 178 168 199 294 193 203 355 157 141 148 165 169 189 255 332 335 337 345 348 344 337 332 328 328 327 319 313 308 307 307 312 315 309 296 286 273 257 245 243 236 228 225 225
96 143 217 215 178 183 174 198 189 181 212 234 183 305 157 164 177 178 178 238 332 346 348 342 342 346 342 337 328 323 323 321 318 315 311 307 306 306 306 302 295 294 270 257 241 241 232 230 227
163 206 221 233 171 153 183 270 227 196 242 220 208 185 192 187 182 191 215 269 315 336 336 340 340 341 339 333 331 325 321 318 317 313 312 306 302 300 299 300 298 301 293 279 257 234 236 229 223
209 234 237 228 173 140 201 177 263 206 226 172 203 181 171 190 205 203 211 219 255 323 331 332 335 338 341 332 328 324 320 318 312 312 310 309 304 299 298 298 296 297 297 297 274 257 238 232 224
218 266 267 190 186 242 172 227 232 251 240 237 202 159 182 196 207 211 205 199 252 314 334 339 338 337 335 330 330 328 323 318 312 308 306 307 304 299 297 294 292 292 295 296 288 263 245 236 227
325 296 274 271 233 232 202 252 127 264 204 211 196 205 204 197 194 194 201 216 267 312 332 337 337 333 331 329 327 325 321 320 310 304 300 304 303 299 295 292 289 286 290 293 287 263 247 232 223
346 314 309 231 215 214 178 273 229 186 153 220 222 223 221 219 199 193 199 203 245 305 327 331 333 329 329 326 323 317 318 314 310 305 298 301 302 298 294 290 286 283 283 291 295 278 245 233 221
339 86 331 95 145 196 152 264 260 169 171 229 227 239 235 220 192 173 176 191 238 307 321 325 325 324 322 318 315 314 311 312 307 304 299 300 298 295 292 292 284 281 285 290 289 279 253 240 219
356 247 214 313 186 132 193 268 260 160 195 242 237 237 230 204 147 168 184 217 280 303 313 318 321 322 319 313 311 309 309 311 311 307 301 296 294 294 293 287 283 281 280 282 279 267 245 254 218
202 222 239 243 337 241 259 260 273 256 222 246 242 234 227 206 200 186 201 260 295 308 313 315 319 320 317 313 310 308 306 300 303 292 287 294 296 295 296 287 281 280 276 277 277 266 240 192 185
110 217 243 242 358 299 252 271 275 280 244 259 253 238 228 211 177 175 199 275 288 297 308 317 317 317 315 314 315 316 301 308 304 294 293 294 299 306 302 289 281 276 270 267 278 263 217 172 144
213 253 263 277 155 248 307 289 279 279 247 226 266 246 229 158 172 187 243 275 285 293 304 310 310 311 312 308 306 301 301 297 300 302 302 297 299 308 301 291 281 273 267 263 266 263 207 195 172
219 206 226 238 313 172 321 289 321 287 266 253 307 294 134 176 195 241 287 295 287 292 305 308 310 313 312 307 299 304 301 298 298 301 298 291 283 315 300 294 276 267 256 259 252 254 244 193 193
257 112 109 276 39 266 34 282 300 315 292 235 222 166 169 183 218 277 294 296 284 305 311 311 311 312 309 300 302 302 295 293 295 300 300 300 281 299 303 290 282 244 240 243 242 246 241 201 186
215 109 109 99 93 32 17 67 271 6 296 273 234 210 214 220 259 292 294 286 307 316 318 316 316 311 309 305 304 303 294 292 293 295 297 300 299 290 307 298 296 269 228 230 241 245 229 241 245
137 83 66 56 85 352 250 135 272 219 215 293 256 222 212 239 292 302 296 306 316 318 319 320 318 311 312 310 307 302 292 292 291 291 295 295 298 298 301 304 297 290 241 237 243 244 235 232 213
64 56 321 339 8 224 256 6 251 263 236 222 246 230 236 283 301 284 288 312 316 319 320 322 316 315 317 315 311 307 299 292 288 288 287 291 298 293 303 306 296 278 256 248 252 257 257 246 249
177 171 165 219 229 278 25 237 253 217 246 243 267 274 291 276 268 270 285 302 309 315 316 319 320 315 318 317 314 311 302 292 286 287 284 283 282 288 295 298 291 274 262 245 248 245 254 252 242
111 217 129 103 56 35 246 281 290 256 307 308 275 260 268 293 276 279 298 301 310 312 316 320 319 316 318 317 316 310 305 297 293 287 278 276 278 278 279 259 276 286 259 233 231 233 242 265 246
222 160 55 11 50 301 282 279 242 307 284 307 298 291 293 290 286 300 297 306 313 314 318 321 322 318 319 319 317 311 309 304 302 293 282 282 283 288 290 309 257 250 236 193 186 162 216 233 232
181 267 63 113 112 169 288 273 214 214 217 249 274 291 280 282 277 268 291 310 310 318 326 328 329 330 329 330 327 323 321 320 316 312 304 304 303 304 310 259 250 194 196 116 182 161 189 212 212
239 201 157 122 266 93 145 272 209 224 237 231 279 296 274 247 261 266 303 305 321 327 332 332 338 339 340 338 339 343 341 346 357 13 7 355 342 328 343 349 74 117 94 127 153 166 184 178 170